TimeMDT,TemperatureF,Dew PointF,Humidity,Sea Level PressureIn,VisibilityMPH,Wind Direction,Wind SpeedMPH,Gust SpeedMPH,PrecipitationIn,Events,Conditions,WindDirDegrees,DateUTC
12:15 AM,55.4,46.4,72,30.22,10.0,East,9.2,-,N/A,,Clear,100,2013-07-27 06:15:00
12:35 AM,55.4,46.4,72,30.22,10.0,ESE,8.1,-,N/A,,Clear,110,2013-07-27 06:35:00
12:55 AM,55.4,46.4,72,30.22,10.0,North,-9999.0,-,N/A,,Mostly Cloudy,0,2013-07-27 06:55:00
1:15 AM,55.4,46.4,72,30.22,10.0,North,-9999.0,-,N/A,,Overcast,0,2013-07-27 07:15:00
1:35 AM,55.4,46.4,72,30.21,10.0,North,-9999.0,-,N/A,,Mostly Cloudy,0,2013-07-27 07:35:00
1:55 AM,55.4,46.4,72,30.21,10.0,East,6.9,-,N/A,,Mostly Cloudy,90,2013-07-27 07:55:00
2:15 AM,53.6,46.4,77,30.20,10.0,East,4.6,-,N/A,,Scattered Clouds,90,2013-07-27 08:15:00
2:35 AM,53.6,44.6,72,30.20,10.0,East,5.8,-,N/A,,Clear,80,2013-07-27 08:35:00
2:55 AM,53.6,44.6,72,30.20,10.0,East,6.9,-,N/A,,Clear,90,2013-07-27 08:55:00
3:15 AM,51.8,44.6,76,30.20,10.0,North,-9999.0,-,N/A,,Clear,0,2013-07-27 09:15:00
3:35 AM,51.8,44.6,76,30.19,10.0,North,-9999.0,-,N/A,,Clear,0,2013-07-27 09:35:00
3:55 AM,51.8,44.6,76,30.19,10.0,North,-9999.0,-,N/A,,Clear,0,2013-07-27 09:55:00
4:15 AM,51.8,44.6,76,30.18,10.0,East,3.5,-,N/A,,Clear,90,2013-07-27 10:15:00
4:35 AM,50.0,44.6,82,30.18,10.0,NNE,8.1,-,N/A,,Clear,30,2013-07-27 10:35:00
4:55 AM,50.0,44.6,82,30.18,10.0,NE,4.6,-,N/A,,Clear,50,2013-07-27 10:55:00
5:15 AM,50.0,44.6,82,30.17,10.0,NNE,4.6,-,N/A,,Clear,30,2013-07-27 11:15:00
5:35 AM,50.0,44.6,82,30.17,10.0,NNE,6.9,-,N/A,,Clear,30,2013-07-27 11:35:00
5:55 AM,50.0,44.6,82,30.17,10.0,Calm,Calm,-,N/A,,Clear,0,2013-07-27 11:55:00
6:15 AM,48.2,44.6,87,30.17,10.0,NNE,5.8,-,N/A,,Clear,30,2013-07-27 12:15:00
6:35 AM,50.0,46.4,87,30.17,10.0,North,6.9,-,N/A,,Clear,10,2013-07-27 12:35:00
6:55 AM,50.0,46.4,87,30.17,10.0,NNE,4.6,-,N/A,,Clear,20,2013-07-27 12:55:00
7:15 AM,51.8,46.4,82,30.17,10.0,North,5.8,-,N/A,,Clear,10,2013-07-27 13:15:00
7:35 AM,51.8,46.4,82,30.18,10.0,NNW,5.8,-,N/A,,Clear,330,2013-07-27 13:35:00
7:55 AM,53.6,46.4,77,30.20,10.0,West,4.6,-,N/A,,Clear,270,2013-07-27 13:55:00
8:15 AM,53.6,46.4,77,30.20,10.0,Calm,Calm,-,N/A,,Scattered Clouds,0,2013-07-27 14:15:00
8:35 AM,53.6,50.0,88,30.16,10.0,ESE,6.9,-,N/A,,Scattered Clouds,110,2013-07-27 14:35:00
8:55 AM,55.4,50.0,82,30.17,10.0,Calm,Calm,-,N/A,,Clear,0,2013-07-27 14:55:00
9:15 AM,55.4,50.0,82,30.16,10.0,Calm,Calm,-,N/A,,Scattered Clouds,0,2013-07-27 15:15:00
9:35 AM,55.4,50.0,82,30.17,10.0,Calm,Calm,-,N/A,,Scattered Clouds,0,2013-07-27 15:35:00
9:55 AM,59.0,51.8,77,30.15,10.0,North,-9999.0,-,N/A,,Scattered Clouds,0,2013-07-27 15:55:00
10:15 AM,60.8,51.8,72,30.15,10.0,Calm,Calm,-,N/A,,Clear,0,2013-07-27 16:15:00
10:35 AM,60.8,51.8,72,30.14,10.0,Calm,Calm,-,N/A,,Clear,0,2013-07-27 16:35:00
10:55 AM,64.4,51.8,64,30.13,10.0,North,-9999.0,-,N/A,,Clear,0,2013-07-27 16:55:00
11:15 AM,66.2,53.6,64,30.12,10.0,Calm,Calm,-,N/A,,Clear,0,2013-07-27 17:15:00
11:35 AM,68.0,53.6,60,30.12,10.0,NW,6.9,-,N/A,,Clear,320,2013-07-27 17:35:00
11:55 AM,68.0,53.6,60,30.12,10.0,North,4.6,-,N/A,,Clear,10,2013-07-27 17:55:00
12:15 PM,69.8,55.4,60,30.11,10.0,NNE,5.8,-,N/A,,Clear,30,2013-07-27 18:15:00
12:35 PM,69.8,55.4,60,30.10,10.0,North,5.8,-,N/A,,Scattered Clouds,360,2013-07-27 18:35:00
12:55 PM,69.8,55.4,60,30.10,10.0,North,3.5,-,N/A,,Scattered Clouds,350,2013-07-27 18:55:00
1:15 PM,71.6,55.4,57,30.09,10.0,NE,6.9,-,N/A,,Scattered Clouds,40,2013-07-27 19:15:00
1:35 PM,71.6,55.4,57,30.08,10.0,NW,3.5,-,N/A,,Mostly Cloudy,310,2013-07-27 19:35:00
1:55 PM,71.6,53.6,53,30.08,10.0,Calm,Calm,-,N/A,,Mostly Cloudy,0,2013-07-27 19:55:00
2:15 PM,73.4,55.4,53,30.07,10.0,WNW,4.6,-,N/A,,Mostly Cloudy,300,2013-07-27 20:15:00
2:35 PM,73.4,53.6,50,30.07,10.0,SSW,5.8,-,N/A,,Scattered Clouds,200,2013-07-27 20:35:00
2:55 PM,73.4,53.6,50,30.06,10.0,South,6.9,-,N/A,,Clear,190,2013-07-27 20:55:00
3:15 PM,75.2,53.6,47,30.06,10.0,SSW,11.5,18.4,N/A,,Scattered Clouds,210,2013-07-27 21:15:00
3:35 PM,75.2,53.6,47,30.05,10.0,SW,10.4,-,N/A,,Scattered Clouds,220,2013-07-27 21:35:00
3:55 PM,73.4,53.6,50,30.06,10.0,SSW,10.4,-,N/A,,Clear,200,2013-07-27 21:55:00
4:15 PM,75.2,53.6,47,30.06,10.0,SSW,9.2,-,N/A,,Clear,210,2013-07-27 22:15:00
4:35 PM,73.4,51.8,47,30.06,10.0,South,6.9,-,N/A,,Clear,190,2013-07-27 22:35:00
4:55 PM,73.4,51.8,47,30.06,10.0,SSW,11.5,18.4,N/A,,Clear,200,2013-07-27 22:55:00
5:15 PM,71.6,51.8,50,30.06,10.0,South,11.5,16.1,N/A,,Clear,190,2013-07-27 23:15:00
5:35 PM,69.8,51.8,53,30.05,10.0,South,11.5,-,N/A,,Clear,180,2013-07-27 23:35:00
5:55 PM,71.6,53.6,53,30.05,10.0,SE,10.4,-,N/A,,Clear,140,2013-07-27 23:55:00
6:15 PM,71.6,53.6,53,30.04,10.0,South,9.2,-,N/A,,Clear,170,2013-07-28 00:15:00
6:35 PM,71.6,51.8,50,30.04,10.0,SE,10.4,-,N/A,,Clear,140,2013-07-28 00:35:00
6:55 PM,69.8,53.6,56,30.03,10.0,SE,6.9,-,N/A,,Clear,130,2013-07-28 00:55:00
7:15 PM,69.8,53.6,56,30.02,10.0,East,4.6,-,N/A,,Clear,100,2013-07-28 01:15:00
7:35 PM,68.0,55.4,64,30.02,10.0,SE,4.6,-,N/A,,Clear,130,2013-07-28 01:35:00
7:55 PM,68.0,57.2,68,30.02,10.0,Calm,Calm,-,N/A,,Clear,0,2013-07-28 01:55:00
8:15 PM,68.0,55.4,64,30.02,10.0,Calm,Calm,-,N/A,,Clear,0,2013-07-28 02:15:00
8:35 PM,68.0,53.6,60,30.02,10.0,Calm,Calm,-,N/A,,Clear,0,2013-07-28 02:35:00
8:55 PM,66.2,53.6,64,30.02,10.0,North,-9999.0,-,N/A,,Clear,0,2013-07-28 02:55:00
9:15 PM,64.4,55.4,73,30.02,10.0,Calm,Calm,-,N/A,,Clear,0,2013-07-28 03:15:00
9:35 PM,62.6,53.6,72,30.02,10.0,East,4.6,-,N/A,,Clear,90,2013-07-28 03:35:00
9:55 PM,62.6,53.6,72,30.02,10.0,Calm,Calm,-,N/A,,Clear,0,2013-07-28 03:55:00
10:15 PM,62.6,53.6,72,30.02,10.0,East,3.5,-,N/A,,Clear,100,2013-07-28 04:15:00
10:35 PM,60.8,53.6,77,30.02,10.0,Calm,Calm,-,N/A,,Clear,0,2013-07-28 04:35:00
10:55 PM,60.8,53.6,77,30.01,10.0,Calm,Calm,-,N/A,,Clear,0,2013-07-28 04:55:00
11:15 PM,60.8,53.6,77,30.01,10.0,Calm,Calm,-,N/A,,Clear,0,2013-07-28 05:15:00
11:35 PM,60.8,53.6,77,30.01,10.0,Calm,Calm,-,N/A,,Clear,0,2013-07-28 05:35:00
11:55 PM,60.8,51.8,72,30.01,10.0,Calm,Calm,-,N/A,,Clear,0,2013-07-28 05:55:00